This is the latest recevied weather packets stored in our database for station/object VE6CWS-7. If no packets are shown the sender has not sent any weather packets the latest 10 day(s).
| Time | Temp. | Humidity | Pressure | Rain* | Wind** | Luminosity | Snow |
|---|---|---|---|---|---|---|---|
| 1777922147 | 10.56° C | 30% | 1015 hPa | 0 mm | - | - | - |
| 1777921307 | 10.56° C | 31% | 1014.9 hPa | 0 mm | - | - | - |
| 1777920346 | 11.11° C | 32% | 1015.1 hPa | 0 mm | - | - | - |
| 1777919444 | 10.56° C | 36% | 1015.1 hPa | 0 mm | - | - | - |
| 1777918604 | 10° C | 35% | 1015.1 hPa | 0 mm | - | - | - |
| 1777917702 | 10° C | 39% | 1015.1 hPa | 0 mm | - | - | - |
| 1777916738 | 10° C | 41% | 1015.1 hPa | 0 mm | - | - | - |
| 1777915838 | 9.44° C | 41% | 1015.1 hPa | 0 mm | - | - | - |
| 1777914938 | 8.89° C | 40% | 1015.2 hPa | 0 mm | - | - | - |
| 1777914096 | 9.44° C | 44% | 1015.4 hPa | 0 mm | - | - | - |
| 1777913139 | 8.33° C | 49% | 1015.4 hPa | 0 mm | - | - | - |
| 1777912239 | 7.78° C | 51% | 1015.4 hPa | 0 mm | - | - | - |
| 1777911333 | 8.33° C | 52% | 1015.4 hPa | 0 mm | - | - | - |
| 1777910494 | 7.78° C | 52% | 1015.5 hPa | 0 mm | - | - | - |
| 1777909551 | 7.22° C | 55% | 1015.6 hPa | 0 mm | - | - | - |
| 1777908651 | 6.67° C | 54% | 1015.6 hPa | 0 mm | - | - | - |
| 1777907749 | 6.67° C | 54% | 1015.8 hPa | 0 mm | - | - | - |
| 1777906908 | 6.67° C | 54% | 1015.7 hPa | 0 mm | - | - | - |
| 1777905953 | 6.11° C | 54% | 1015.6 hPa | 0 mm | - | - | - |
| 1777905047 | 6.11° C | 55% | 1015.5 hPa | 0 mm | - | - | - |
| 1777904144 | 6.11° C | 55% | 1015.4 hPa | 0 mm | - | - | - |
| 1777903304 | 6.11° C | 58% | 1015.2 hPa | 0 mm | - | - | - |
| 1777902354 | 5.56° C | 63% | 1015.1 hPa | 0 mm | - | - | - |
| 1777901453 | 5.56° C | 64% | 1015.1 hPa | 0 mm | - | - | - |
| 1777900543 | 5° C | 65% | 1014.7 hPa | 0 mm | - | - | - |
* Rain latest hour (hover to see other rain measurements)
** Current wind speed in m/s (hover to see current wind gust speed)